Uploader - adam014

Uploader to miejsce na przechowywanie plików Twojej twórczości, którymi chcesz podzielić się na GMCLANie.

Zajęte: 70.01 MB (70%)
Najnowsze pliki graficzne w tym folderze (max. 12):
Plik Pobrań Rozmiar Data uploadu
Adobe_Certified_Professional_Exp.png Podgląd 277 9.43 KB 06.11.2021 18:15:44
Adobe_Certified_Expert_Experienc.png Podgląd 286 7.91 KB 06.11.2021 18:15:32
Zrzut_ekranu_2020_03_6_o_17_57_1.png Podgląd 260 588.47 KB 06.03.2020 17:59:57
n.gif Podgląd 348 1.11 MB 30.12.2017 09:36:08
a.gif Podgląd 347 66.79 KB 29.12.2017 13:07:38
bieeda.png Podgląd 302 95.51 KB 10.07.2017 19:10:03
teren22.gif Podgląd 343 677.90 KB 09.07.2017 14:13:00
teren2.gif Podgląd 297 94.31 KB 01.07.2017 17:52:14
teren.gif Podgląd 332 491.41 KB 02.06.2017 15:57:09
KnockOutLITE_YXY.zip 262 4.40 MB 22.04.2015 21:33:26
HELL_YXY2015.zip 296 9.29 MB 22.04.2015 20:56:47
scr1.jpg Podgląd 326 202.02 KB 22.04.2015 20:46:36
Untitled_1.jpg Podgląd 331 96.38 KB 05.04.2015 20:11:06
Inverted_YXY2015_adam014.rar 268 3.24 MB 01.03.2015 17:05:02
screen2.jpg Podgląd 337 199.91 KB 01.03.2015 16:58:56
screen1.jpg Podgląd 325 117.02 KB 01.03.2015 16:58:44
kinetic.jpg Podgląd 321 224.50 KB 25.08.2014 16:09:53
gmc_avatar.png Podgląd 341 15.21 KB 16.05.2014 18:57:38
sygnab53e5.png Podgląd 317 126.22 KB 14.05.2014 21:56:21
arenaa333.jpg Podgląd 311 1.27 MB 01.04.2014 12:22:38
new_logo2.png Podgląd 338 5.40 KB 01.04.2014 12:22:38
Obrazek_1.png Podgląd 282 922.38 KB 01.04.2014 12:22:38
pauzapl.jpg Podgląd 312 42.48 KB 01.04.2014 12:22:37
ucieczka.rar 265 1.20 MB 01.04.2014 12:22:37
gadzet.jpg Podgląd 297 124.54 KB 01.04.2014 12:22:35
knockout2.jpg Podgląd 337 148.64 KB 01.04.2014 12:22:35
knockout1.jpg Podgląd 329 177.71 KB 01.04.2014 12:22:35
haye.png Podgląd 321 37.95 KB 01.04.2014 12:22:34
nanowarelogo.png Podgląd 257 23.73 KB 01.04.2014 12:22:34
mordeczki.png Podgląd 268 44.64 KB 01.04.2014 12:22:34
edytor.jpg Podgląd 285 188.79 KB 01.04.2014 12:22:34
quick_battle.jpg Podgląd 336 84.10 KB 01.04.2014 12:22:33
shil_boxing.png Podgląd 326 54.85 KB 01.04.2014 12:22:33
kliczko_test.gif Podgląd 271 123.62 KB 01.04.2014 12:22:33
kliczko.png Podgląd 288 90.98 KB 01.04.2014 12:22:33
ytplay.png Podgląd 281 41.43 KB 01.04.2014 12:22:32
logo.jpg Podgląd 308 39.58 KB 01.04.2014 12:22:32
logo_2012.png Podgląd 256 8.81 KB 01.04.2014 12:22:32
szubienica2012_test.jpg Podgląd 349 90.93 KB 01.04.2014 12:22:32
gadget.jpg Podgląd 288 12.75 KB 01.04.2014 12:22:32
pulpit2.png Podgląd 283 151.61 KB 01.04.2014 12:22:32
scrolled_text.gm81 280 3.37 KB 01.04.2014 12:22:32
konew.jpg Podgląd 347 118.81 KB 01.04.2014 12:22:32
pulpit1.png Podgląd 301 250.09 KB 01.04.2014 12:22:32
sygna.jpg Podgląd 311 11.17 KB 01.04.2014 12:22:31
fotelszefa.jpg Podgląd 269 63.20 KB 01.04.2014 12:22:31
dev_screen3.png Podgląd 346 307.55 KB 01.04.2014 12:22:31
2.jpg Podgląd 331 77.66 KB 01.04.2014 12:22:31
gra_html5.rar 267 128.97 KB 01.04.2014 12:22:31
1.jpg Podgląd 312 66.90 KB 01.04.2014 12:22:31
lights.jpg Podgląd 336 54.84 KB 01.04.2014 12:22:31
ko_devscreen1.jpg Podgląd 328 76.93 KB 01.04.2014 12:22:31
splash.jpg Podgląd 313 48.43 KB 01.04.2014 12:22:31
ceg_y.rar 284 1.04 MB 01.04.2014 12:22:30
pulpet1.jpg Podgląd 277 168.54 KB 01.04.2014 12:22:30
okladki.rar 274 3.78 MB 01.04.2014 12:22:30
zrzutekranu.png Podgląd 273 1.70 MB 01.04.2014 12:22:27
lol.png Podgląd 305 127.99 KB 01.04.2014 12:22:26
xscorch02_beta1.rar 277 7.05 MB 01.04.2014 12:22:26
myfile.gif Podgląd 292 277.14 KB 01.04.2014 12:22:23
ots3D.rar 264 1.76 MB 01.04.2014 12:22:22
market_example.gm6 261 11.51 KB 01.04.2014 12:22:21
x.rar 284 1.25 MB 01.04.2014 12:22:21
scr1.png Podgląd 272 3.39 KB 01.04.2014 12:22:20
pl_sic.png Podgląd 328 1.30 KB 01.04.2014 12:22:20
x_pas.rar 271 1.03 MB 01.04.2014 12:22:20
smoke.gm6 274 4.38 KB 01.04.2014 12:22:20
menu.png Podgląd 287 324.44 KB 01.04.2014 12:22:20
zrecznosciowkaengine2.gm6 268 7.90 KB 01.04.2014 12:22:20
licznik.rar 260 2.17 KB 01.04.2014 12:22:20
zrecznosciowkaengine.gm6 275 7.67 KB 01.04.2014 12:22:19
screen1.png Podgląd 319 550.61 KB 01.04.2014 12:22:19
scr_menu.png Podgląd 270 596.57 KB 01.04.2014 12:22:19
madman_demo_v0_2.rar 276 1.29 MB 01.04.2014 12:22:18
uploader.png Podgląd 286 27.97 KB 01.04.2014 12:22:17
pleag_scr1.png Podgląd 271 16.60 KB 01.04.2014 12:22:17
screen2.png Podgląd 293 686.03 KB 01.04.2014 12:22:17
logo_c.png Podgląd 274 418.23 KB 01.04.2014 12:22:17
halflife.gm6 289 5.80 KB 01.04.2014 12:22:17
robaki_nowe.rar 265 1.29 MB 01.04.2014 12:22:16
almora.png Podgląd 320 1.86 MB 01.04.2014 12:22:15
pl2_screen2.png Podgląd 276 2.42 KB 01.04.2014 12:22:15
odswierzacz.rar 258 947.97 KB 01.04.2014 12:22:14
onthespeedv5.rar 262 5.03 MB 01.04.2014 12:22:14
hak.rar 256 966.16 KB 01.04.2014 12:22:10
xrp.zip 255 708.72 KB 01.04.2014 12:22:10
przezroczystosc.gm6 277 51.64 KB 01.04.2014 12:22:09
loading.gif Podgląd 277 2.74 KB 01.04.2014 12:22:09
madman2_update1.rar 245 930.62 KB 01.04.2014 12:22:09
health.rar 262 1.64 KB 01.04.2014 12:22:09
pleag_ub.png Podgląd 323 15.15 KB 01.04.2014 12:22:09
hockey.rar 256 1.06 MB 01.04.2014 12:22:08
odsw_03_beta.rar 283 903.61 KB 01.04.2014 12:22:07
MadMan2_full1_1.rar 255 941.45 KB 01.04.2014 12:22:06
zrzut_ekranu1.png Podgląd 268 672.26 KB 01.04.2014 12:22:06
tuba.png Podgląd 269 33.02 KB 01.04.2014 12:22:05
sygna_binary.png Podgląd 321 43.21 KB 01.04.2014 12:22:05
teren.gm6 266 8.90 KB 01.04.2014 12:22:05
sig.png Podgląd 307 83.94 KB 01.04.2014 12:22:05
inventory.png Podgląd 289 156.63 KB 01.04.2014 12:22:05
scr2.png Podgląd 286 31.92 KB 01.04.2014 12:22:05
original.png Podgląd 288 1.92 KB 01.04.2014 12:22:05
xscorch.rar 263 1.10 MB 01.04.2014 12:22:04
zegar.gm6 284 5.18 KB 01.04.2014 12:22:04
sygna.png Podgląd 342 53.94 KB 01.04.2014 12:22:04
pl2_screen1.png Podgląd 277 2.72 KB 01.04.2014 12:22:04
mon.png Podgląd 304 3.47 KB 01.04.2014 12:22:04
samochod.gm6 274 7.32 KB 01.04.2014 12:22:04
bounceeffect.gm6 264 7.50 KB 01.04.2014 12:22:03
clown_down.rar 275 0.96 MB 01.04.2014 12:22:03
patch_17_1.txt 276 73.00 B 01.04.2014 12:22:03
Pulpit311.png Podgląd 333 201.37 KB 01.04.2014 12:22:03
cd.rar 279 966.09 KB 01.04.2014 12:22:02
version.txt 250 88.00 B 01.04.2014 12:22:02
pleag_scr2.png Podgląd 267 10.47 KB 01.04.2014 12:22:02
obracanie.gm6 245 5.71 KB 01.04.2014 12:22:02
pl2_screen3.png Podgląd 303 3.79 KB 01.04.2014 12:22:01
71f52816d1.gm6 274 8.89 KB 01.04.2014 12:22:00
szablon.png Podgląd 318 149.00 B 01.04.2014 12:22:00
no_name.rar 275 1.03 MB 01.04.2014 12:22:00
sloty.gm6 254 5.30 KB 01.04.2014 12:22:00
optymalizacja.rar 253 2.48 KB 01.04.2014 12:22:00
gmc.jpg Podgląd 298 11.56 KB 01.04.2014 12:21:59
przyklad_rozdzielczosc.gm6 246 5.91 KB 01.04.2014 12:21:59
patrzenie.gm6 259 4.98 KB 01.04.2014 12:21:59
hakv2.rar 263 963.29 KB 01.04.2014 12:21:58
parkour2.png Podgląd 302 1.39 KB 01.04.2014 12:21:57
pleag_0_38b.rar 277 40.95 KB 01.04.2014 12:21:57
kolor.gm6 252 6.85 KB 01.04.2014 12:21:57
70 MB / 100MB

Najnowsze wersje GameMakera:

Stabilna
2024.14.4.222 • 2024.14.4.268
wydana 31 dni temu
LTS
2022.0.3.85 • 2022.0.3.99
wydana 518 dni temu
Beta
2024.1400.5.1055 •
2024.1400.5.1027
 0.19.0

wydana  6 dni temu
= IDE, = Runtime, = GMRT
Użytkownicy online
1 użytkownik aktywny:
gości: 1,
(~ostatnie 15 minut)
Discord
47 użytkowników online na discordzie:
Miłosz, Morti, 🧁Cupcake🧁, Grela, LeD, Nitro Slav, Carl-bot, pABLO, Fox, 21Lancz, HappyOrange, Wielki Druid, GMRussell, fervi, Soplyash, 𝕯𝖎𝖆𝖓𝖆, Threef, RogerDodg3r, Uzjel, Destiny, Pako, Jarkozpl, Dyno, szmalu, sgames, Marco, OdrzuconyKrakers, Skovv, Danieo, bagno, Arrekin, Tidżi, Mtax, g..., RuLing, Voytec, PeekoHiko, s..., l..., Cebul, moeglich, Add92, Kandif, h..., Shockah, Nero, xVANiLL
Shoutbox
gnysek (11:13, 05.05.26)
czekamy na GMRT
Wojo (14:53, 04.05.26)
Co tak cicho?
gnysek (11:01, 30.04.26)
Grill panie, grill.
Wojo (14:18, 29.04.26)
Jak planujecie spędzić najbliższą majówkę?
Wojo (13:15, 13.03.26)
Ja zainstalowałem sobie Linux mint na swoim laptopie :)
Wojo (10:21, 12.02.26)
Tak, po zmianach gmclan przeżywa drugą młodość. Najnowsze trendy wskazują, że ten rok będzie rokiem Linuxa, rokiem odejścia od Facebooka i rokiem odejścia od discorda na rzecz forów internetowych B)
K
Kamilek (21:57, 08.12.25)
Ale klimat tu znowu wrócić! :-D
Wojo (13:03, 07.12.25)
Żeby nie było to jednak discord jest żywy :)
Wojo (12:50, 07.12.25)
Ehh znak czasu. Prawie dwa miesiące ciszy w shoutboxie, na forum też raczej cisza i jest głównie swego rodzaju archiwum ostatnich dwóch dekad
gnysek (16:01, 16.10.25)
To już google decyduje. Mam wrażenie, ze po datach obcina stare treści.
Starsze wpisy znajdziesz w Archiwum.
Ankieta
Ile zarobiłeś do tej pory na grach stworzonych w GM?